User: anonymous   Login
Location: Unspecified
(0.0000°N, 0.0000°E)
Time: 00:06:15
(UTC+00:00)
Language:

OBJECT J - Orbit

View from above orbital plane
View from above orbital plane
View from above satellite
View from above satellite

Ground track
Ground track

The orbit is defined by the following mean orbital elements,

1 63990U          26145.59751860 +.00000000 +00000-0 +72438-3 0 00006
2 63990  97.3631 221.4673 0008604  24.3425 335.8221 15.30477379    01
Epoch (UTC): 25 May 2026 14:20:25
Eccentricity: 0.0008604
inclination: 97.3631°
perigee height: 468 km
apogee height: 480 km
right ascension of ascending node: 221.4673°
argument of perigee: 24.3425°
revolutions per day: 15.30477379
mean anomaly at epoch: 335.8221°

The dashed part of the orbit path shows where the satellite is in the earth's shadow,  

DLR